UAE84N OMDB-EHAM

Flight info

Callsign UAE84N
Flight time N/A
Altitude 32000
Route RIDAP M557 TUMAK L602 GADSI M860 SEPTU/N0484F340 DCT VUSEB M860 NINVA UM860 ODALI UL852 NEGEM DCT MAXOV DCT BADOR DCT PITOK DCT MAKAL DCT LALUK DCT NORKU
Aircraft B77L/H-SDE1E2E3FGHIJ2J3J4J5M1RWXY/LB1D1

Departure

Time 2026-05-06 22:54
Airport Dubai International Airport (OMDB)

Arrival

Time N/A
Airport Amsterdam Airport Schiphol (EHAM)
Time Latitude Longitude Altitude Speed Heading
2026-05-06 22:21 25.23919 55.38132 26 ft 0 kts 211°
2026-05-06 22:43 25.23920 55.38133 26 ft 2 kts 211°
2026-05-06 22:43 25.23942 55.38147 26 ft 4 kts 211°
2026-05-06 22:43 25.23961 55.38160 26 ft 4 kts 213°
2026-05-06 22:44 25.23981 55.38179 27 ft 4 kts 240°
2026-05-06 22:44 25.23987 55.38205 30 ft 4 kts 286°
2026-05-06 22:44 25.23976 55.38229 28 ft 4 kts 301°
2026-05-06 22:44 25.23966 55.38246 27 ft 1 kts 301°
2026-05-06 22:48 25.23967 55.38246 26 ft 0 kts 301°
2026-05-06 22:48 25.23991 55.38202 30 ft 17 kts 302°
2026-05-06 22:48 25.24056 55.38085 29 ft 18 kts 302°
2026-05-06 22:48 25.24122 55.37968 27 ft 18 kts 302°
2026-05-06 22:49 25.24188 55.37851 30 ft 17 kts 302°
2026-05-06 22:49 25.24252 55.37778 29 ft 13 kts 355°
2026-05-06 22:49 25.24318 55.37813 31 ft 8 kts 33°
2026-05-06 22:49 25.24357 55.37841 26 ft 5 kts 33°
2026-05-06 22:50 25.24388 55.37865 26 ft 5 kts 34°
2026-05-06 22:50 25.24419 55.37888 28 ft 5 kts 34°
2026-05-06 22:50 25.24450 55.37911 27 ft 7 kts 34°
2026-05-06 22:50 25.24536 55.37976 28 ft 15 kts 34°
2026-05-06 22:51 25.24626 55.38044 28 ft 13 kts 31°
2026-05-06 22:51 25.24639 55.38052 28 ft 0 kts 31°
2026-05-06 22:52 25.24659 55.38065 28 ft 13 kts 31°
2026-05-06 22:53 25.24747 55.38107 30 ft 13 kts 351°
2026-05-06 22:53 25.24802 55.38033 30 ft 10 kts 301°
2026-05-06 22:53 25.24809 55.38020 29 ft 0 kts 302°
2026-05-06 22:53 25.24819 55.38002 29 ft 21 kts 301°
2026-05-06 22:54 25.25070 55.37550 32 ft 115 kts 301°
2026-05-06 22:54 25.25619 55.36559 48 ft 187 kts 301°
2026-05-06 22:54 25.26311 55.35303 879 ft 191 kts 301°
2026-05-06 22:54 25.27012 55.34037 1934 ft 193 kts 302°
2026-05-06 22:55 25.27751 55.32710 2306 ft 220 kts 302°
2026-05-06 22:55 25.28606 55.31176 2561 ft 249 kts 301°
2026-05-06 22:55 25.29408 55.29437 3087 ft 262 kts 283°
2026-05-06 22:55 25.29683 55.27388 3749 ft 271 kts 276°
2026-05-06 22:56 25.29914 55.25338 4594 ft 276 kts 277°
2026-05-06 22:56 25.30184 55.23219 5546 ft 278 kts 277°
2026-05-06 22:56 25.30470 55.21106 6425 ft 281 kts 278°
2026-05-06 22:56 25.30769 55.18963 7300 ft 285 kts 278°
2026-05-06 22:57 25.31076 55.16799 8113 ft 289 kts 278°
2026-05-06 22:57 25.31393 55.14582 8919 ft 293 kts 278°
2026-05-06 22:57 25.31717 55.12337 9724 ft 297 kts 278°
2026-05-06 22:57 25.32049 55.10063 10465 ft 304 kts 279°
2026-05-06 22:58 25.32397 55.07670 10763 ft 329 kts 279°
2026-05-06 22:58 25.32770 55.05074 10975 ft 355 kts 279°
2026-05-06 22:58 25.33173 55.02287 11270 ft 378 kts 279°
2026-05-06 22:58 25.33596 54.99377 11934 ft 388 kts 279°
2026-05-06 22:59 25.34029 54.96409 12745 ft 395 kts 280°
2026-05-06 22:59 25.34466 54.93390 13604 ft 400 kts 280°
2026-05-06 22:59 25.34971 54.90347 14378 ft 406 kts 284°
2026-05-06 22:59 25.35771 54.87326 15125 ft 411 kts 289°
2026-05-06 23:00 25.36668 54.84307 15912 ft 416 kts 289°
2026-05-06 23:00 25.37566 54.81270 16712 ft 419 kts 288°
2026-05-06 23:00 25.38313 54.78694 17354 ft 423 kts 288°
2026-05-06 23:01 25.38957 54.76451 17883 ft 426 kts 288°
2026-05-06 23:01 25.39853 54.73310 18578 ft 431 kts 288°
2026-05-06 23:01 25.40762 54.70133 19263 ft 435 kts 288°
2026-05-06 23:02 25.41686 54.66936 19952 ft 438 kts 288°
2026-05-06 23:02 25.42619 54.63715 20610 ft 442 kts 288°
2026-05-06 23:02 25.43561 54.60460 21202 ft 447 kts 288°
2026-05-06 23:02 25.44525 54.57170 21773 ft 452 kts 288°
2026-05-06 23:03 25.45501 54.53855 22375 ft 455 kts 288°
2026-05-06 23:03 25.46470 54.50568 22992 ft 457 kts 288°
2026-05-06 23:03 25.47456 54.47220 23597 ft 459 kts 288°
2026-05-06 23:03 25.48445 54.43849 24168 ft 462 kts 288°
2026-05-06 23:04 25.49439 54.40455 24678 ft 465 kts 287°
2026-05-06 23:04 25.50438 54.37043 25169 ft 468 kts 287°
2026-05-06 23:04 25.51443 54.33608 25661 ft 471 kts 287°
2026-05-06 23:04 25.52454 54.30148 26142 ft 473 kts 287°
2026-05-06 23:05 25.53467 54.26673 26620 ft 476 kts 287°
2026-05-06 23:05 25.54488 54.23178 27079 ft 478 kts 287°
2026-05-06 23:05 25.55526 54.19664 27537 ft 481 kts 287°
2026-05-06 23:05 25.56571 54.16138 27979 ft 483 kts 287°
2026-05-06 23:06 25.57619 54.12600 28385 ft 486 kts 287°
2026-05-06 23:06 25.58675 54.09025 28797 ft 488 kts 287°
2026-05-06 23:06 25.59725 54.05451 29218 ft 489 kts 287°
2026-05-06 23:06 25.60756 54.01862 29718 ft 488 kts 286°
2026-05-06 23:07 25.61766 53.98285 30320 ft 485 kts 286°
2026-05-06 23:07 25.62766 53.94730 30916 ft 482 kts 285°
2026-05-06 23:07 25.63760 53.91203 31493 ft 480 kts 286°
2026-05-06 23:07 25.64759 53.87668 31873 ft 481 kts 286°
2026-05-06 23:08 25.65756 53.84142 31854 ft 479 kts 286°
2026-05-06 23:08 25.67758 53.77054 32126 ft 485 kts 286°
2026-05-06 23:08 25.68740 53.73573 32547 ft 484 kts 286°
2026-05-06 23:09 25.69738 53.70023 33093 ft 481 kts 285°
2026-05-06 23:09 25.70730 53.66495 33622 ft 478 kts 285°
2026-05-06 23:09 25.71719 53.62979 34109 ft 476 kts 285°
2026-05-06 23:09 25.72700 53.59482 34562 ft 475 kts 285°
2026-05-06 23:10 25.73679 53.55988 34972 ft 474 kts 285°
2026-05-06 23:10 25.74655 53.52493 35364 ft 474 kts 285°
2026-05-06 23:10 25.75630 53.49010 35734 ft 473 kts 285°
2026-05-06 23:10 25.76613 53.45523 35893 ft 476 kts 285°
2026-05-06 23:11 25.77606 53.42013 35886 ft 476 kts 286°
2026-05-06 23:11 25.79253 53.36200 35857 ft 473 kts 285°
2026-05-06 23:12 25.81212 53.29247 35877 ft 471 kts 285°
2026-05-06 23:12 25.83155 53.22324 35875 ft 469 kts 285°
2026-05-06 23:13 25.85378 53.15503 35886 ft 471 kts 292°
2026-05-06 23:13 25.88107 53.08891 35864 ft 472 kts 292°
2026-05-06 23:14 25.90841 53.02259 35883 ft 472 kts 292°
2026-05-06 23:14 25.93550 52.95591 35885 ft 474 kts 292°
2026-05-06 23:15 25.96254 52.88889 35846 ft 476 kts 292°
2026-05-06 23:15 25.98967 52.82175 35842 ft 477 kts 292°
2026-05-06 23:16 26.01687 52.75437 35832 ft 478 kts 292°
2026-05-06 23:16 26.04566 52.68791 35834 ft 477 kts 295°
2026-05-06 23:17 26.07599 52.62229 35835 ft 476 kts 295°
2026-05-06 23:17 26.10569 52.55671 35832 ft 474 kts 294°
2026-05-06 23:18 26.13520 52.49112 35824 ft 473 kts 294°
2026-05-06 23:18 26.16484 52.42586 35821 ft 473 kts 294°
2026-05-06 23:19 26.19440 52.36045 35825 ft 472 kts 294°
2026-05-06 23:19 26.22389 52.29514 35825 ft 472 kts 294°
2026-05-06 23:20 26.25253 52.22928 35830 ft 472 kts 293°
2026-05-06 23:20 26.28085 52.16336 35826 ft 473 kts 293°
2026-05-06 23:21 26.28118 52.16259 35828 ft 473 kts 293°
2026-05-06 23:21 26.30097 52.11675 35826 ft 473 kts 293°
2026-05-06 23:22 26.32951 52.05060 35824 ft 474 kts 293°
2026-05-06 23:22 26.35786 51.98420 35824 ft 474 kts 293°
2026-05-06 23:23 26.38446 51.91744 35812 ft 474 kts 288°
2026-05-06 23:23 26.40708 51.84798 35817 ft 473 kts 288°
2026-05-06 23:24 26.42997 51.77962 35813 ft 473 kts 288°
2026-05-06 23:24 26.45328 51.71100 35826 ft 473 kts 288°
2026-05-06 23:25 26.47665 51.64197 35834 ft 472 kts 288°
2026-05-06 23:25 26.49959 51.57345 35838 ft 471 kts 288°
2026-05-06 23:26 26.52231 51.50486 35830 ft 471 kts 288°
2026-05-06 23:26 26.54499 51.43628 35833 ft 471 kts 288°
2026-05-06 23:27 26.56751 51.36821 35833 ft 470 kts 288°
2026-05-06 23:27 26.59026 51.29932 35838 ft 470 kts 288°
2026-05-06 23:28 26.61276 51.23119 35841 ft 470 kts 288°
2026-05-06 23:28 26.63535 51.16274 35844 ft 469 kts 288°
2026-05-06 23:29 26.65790 51.09438 35840 ft 469 kts 288°
2026-05-06 23:29 26.68045 51.02598 35842 ft 469 kts 288°
2026-05-06 23:30 26.70270 50.95738 35841 ft 469 kts 287°
2026-05-06 23:30 26.72467 50.88864 35841 ft 470 kts 287°
2026-05-06 23:31 26.74672 50.81985 35839 ft 469 kts 287°
2026-05-06 23:31 26.76870 50.75111 35837 ft 469 kts 287°
2026-05-06 23:32 26.79190 50.68283 35822 ft 472 kts 292°
2026-05-06 23:32 26.82488 50.61912 35833 ft 475 kts 301°
2026-05-06 23:33 26.86636 50.56114 35833 ft 478 kts 307°
2026-05-06 23:33 26.90880 50.50385 35822 ft 478 kts 306°
2026-05-06 23:34 26.95312 50.44822 35834 ft 479 kts 310°
2026-05-06 23:34 26.99923 50.39421 35825 ft 479 kts 310°
2026-05-06 23:35 27.04497 50.33993 35827 ft 479 kts 309°
2026-05-06 23:35 27.09034 50.28534 35826 ft 478 kts 309°
2026-05-06 23:36 27.13560 50.23066 35824 ft 478 kts 309°
2026-05-06 23:36 27.18434 50.17939 35813 ft 483 kts 319°
2026-05-06 23:37 27.23886 50.13492 35824 ft 484 kts 320°
2026-05-06 23:37 27.29332 50.09045 35818 ft 484 kts 319°
2026-05-06 23:38 27.34749 50.04543 35814 ft 484 kts 319°
2026-05-06 23:38 27.40114 49.99970 35817 ft 483 kts 317°
2026-05-06 23:39 27.45403 49.95292 35824 ft 484 kts 317°
2026-05-06 23:39 27.50688 49.90615 35823 ft 483 kts 317°
2026-05-06 23:40 27.55982 49.85951 35826 ft 484 kts 317°
2026-05-06 23:40 27.60951 49.81579 35828 ft 484 kts 317°
2026-05-06 23:41 27.65041 49.77968 35831 ft 484 kts 317°
2026-05-06 23:42 27.70346 49.73284 35840 ft 484 kts 317°
2026-05-06 23:42 27.75652 49.68591 35848 ft 485 kts 317°
2026-05-06 23:43 27.80953 49.63887 35865 ft 484 kts 317°
2026-05-06 23:43 27.86235 49.59164 35862 ft 484 kts 317°
2026-05-06 23:44 27.91505 49.54443 35857 ft 484 kts 317°
2026-05-06 23:44 27.96781 49.49712 35860 ft 483 kts 317°
2026-05-06 23:45 28.02051 49.44984 35875 ft 484 kts 317°
2026-05-06 23:45 28.07264 49.40268 35885 ft 483 kts 316°
2026-05-06 23:46 28.12503 49.35484 35885 ft 483 kts 316°
2026-05-06 23:46 28.17739 49.30701 35880 ft 483 kts 316°
2026-05-06 23:47 28.22968 49.25923 35880 ft 483 kts 316°
2026-05-06 23:47 28.28193 49.21143 35865 ft 482 kts 316°
2026-05-06 23:48 28.33385 49.16349 35882 ft 481 kts 316°
2026-05-06 23:48 28.38579 49.11542 35881 ft 482 kts 316°
2026-05-06 23:49 28.44062 49.07103 35895 ft 485 kts 321°
2026-05-06 23:49 28.49690 49.02858 35890 ft 486 kts 321°
2026-05-06 23:50 28.55304 48.98596 35893 ft 485 kts 321°
2026-05-06 23:50 28.63707 48.92151 35897 ft 486 kts 321°
2026-05-06 23:51 28.69313 48.87834 35901 ft 486 kts 321°
2026-05-06 23:51 28.74921 48.83522 35896 ft 486 kts 321°
2026-05-06 23:52 28.80526 48.79207 35898 ft 486 kts 321°
2026-05-06 23:52 28.86130 48.74901 35895 ft 486 kts 321°
2026-05-06 23:53 28.91737 48.70598 35908 ft 486 kts 321°
2026-05-06 23:53 28.97313 48.66317 35906 ft 486 kts 321°
2026-05-06 23:54 29.01999 48.62714 35909 ft 486 kts 321°
2026-05-06 23:54 29.08522 48.57685 35907 ft 486 kts 321°
2026-05-06 23:55 29.14116 48.53361 35907 ft 486 kts 321°
2026-05-06 23:55 29.18813 48.49734 35909 ft 485 kts 321°
2026-05-06 23:56 29.24404 48.45407 35912 ft 485 kts 320°
2026-05-06 23:56 29.29995 48.41073 35917 ft 485 kts 320°
2026-05-06 23:57 29.35584 48.36732 35917 ft 485 kts 320°
2026-05-06 23:57 29.41169 48.32391 35909 ft 485 kts 320°
2026-05-06 23:58 29.46894 48.28249 35908 ft 488 kts 324°
2026-05-06 23:58 29.52810 48.24398 35904 ft 489 kts 325°
2026-05-06 23:59 29.58692 48.20580 35897 ft 489 kts 324°
2026-05-06 23:59 29.64595 48.16707 35898 ft 488 kts 324°
2026-05-07 00:00 29.70486 48.12815 35896 ft 489 kts 324°
2026-05-07 00:00 29.73648 48.10724 35900 ft 489 kts 324°
2026-05-07 00:01 29.74352 48.10260 35899 ft 489 kts 324°
2026-05-07 00:01 29.80253 48.06359 35888 ft 489 kts 324°
2026-05-07 00:02 29.86156 48.02449 35891 ft 489 kts 324°
2026-05-07 00:02 29.92060 47.98538 35888 ft 489 kts 324°
2026-05-07 00:03 29.97945 47.94626 35892 ft 488 kts 323°
2026-05-07 00:03 30.03319 47.90006 35898 ft 478 kts 312°
2026-05-07 00:04 30.07832 47.84454 35895 ft 472 kts 305°
2026-05-07 00:04 30.12093 47.78686 35890 ft 472 kts 305°
2026-05-07 00:05 30.16374 47.72915 35901 ft 473 kts 305°
2026-05-07 00:05 30.20673 47.67157 35912 ft 473 kts 305°
2026-05-07 00:06 30.24978 47.61400 35918 ft 474 kts 305°
2026-05-07 00:06 30.29280 47.55635 35918 ft 474 kts 305°
2026-05-07 00:07 30.33592 47.49847 35918 ft 474 kts 305°
2026-05-07 00:07 30.37897 47.44055 35913 ft 475 kts 305°
2026-05-07 00:08 30.42200 47.38257 35908 ft 475 kts 305°
2026-05-07 00:08 30.46507 47.32449 35910 ft 474 kts 305°
2026-05-07 00:09 30.50803 47.26647 35910 ft 475 kts 305°
2026-05-07 00:09 30.55103 47.20842 35907 ft 475 kts 306°
2026-05-07 00:10 30.59932 47.15546 35914 ft 482 kts 315°
2026-05-07 00:10 30.65181 47.10702 35919 ft 483 kts 316°
2026-05-07 00:11 30.70460 47.05846 35917 ft 483 kts 316°
2026-05-07 00:11 30.75709 47.00967 35917 ft 484 kts 315°
2026-05-07 00:12 30.80950 46.96055 35916 ft 484 kts 315°
2026-05-07 00:12 30.86193 46.91136 35917 ft 484 kts 315°
2026-05-07 00:13 30.91432 46.86211 35916 ft 484 kts 315°
2026-05-07 00:13 30.96659 46.81291 35917 ft 484 kts 315°
2026-05-07 00:14 31.01884 46.76367 35910 ft 483 kts 315°
2026-05-07 00:14 31.07105 46.71443 35920 ft 482 kts 315°
2026-05-07 00:15 31.12319 46.66514 35934 ft 482 kts 315°
2026-05-07 00:15 31.17525 46.61587 35915 ft 482 kts 315°
2026-05-07 00:16 31.22726 46.56659 35927 ft 481 kts 315°
2026-05-07 00:16 31.27927 46.51721 35925 ft 481 kts 315°
2026-05-07 00:17 31.33113 46.46792 35956 ft 483 kts 315°
2026-05-07 00:17 31.35725 46.44304 36220 ft 484 kts 315°
2026-05-07 00:17 31.38329 46.41825 36617 ft 482 kts 315°
2026-05-07 00:18 31.40924 46.39354 37052 ft 480 kts 315°
2026-05-07 00:18 31.43502 46.36897 37511 ft 475 kts 315°
2026-05-07 00:18 31.46051 46.34463 37922 ft 473 kts 315°
2026-05-07 00:18 31.48613 46.32015 37979 ft 475 kts 315°
2026-05-07 00:19 31.53708 46.27145 37982 ft 470 kts 315°
2026-05-07 00:19 31.58752 46.22314 37996 ft 467 kts 314°
2026-05-07 00:20 31.63780 46.17490 38002 ft 466 kts 314°
2026-05-07 00:20 31.66053 46.15304 37999 ft 466 kts 314°
2026-05-07 00:21 31.67193 46.14210 38002 ft 466 kts 314°
2026-05-07 00:21 31.72211 46.09387 38014 ft 467 kts 314°
2026-05-07 00:22 31.77229 46.04534 38017 ft 467 kts 314°
2026-05-07 00:22 31.82193 45.99602 38023 ft 468 kts 313°
2026-05-07 00:23 31.87169 45.94639 38021 ft 469 kts 314°
2026-05-07 00:23 31.92153 45.89672 38018 ft 470 kts 313°
2026-05-07 00:24 31.97138 45.84702 38024 ft 470 kts 314°
2026-05-07 00:24 32.02122 45.79728 38028 ft 469 kts 313°
2026-05-07 00:25 32.07100 45.74752 38032 ft 469 kts 313°
2026-05-07 00:25 32.12071 45.69783 38037 ft 469 kts 313°
2026-05-07 00:26 32.17018 45.64824 38035 ft 469 kts 313°
2026-05-07 00:26 32.21992 45.59828 38038 ft 469 kts 313°
2026-05-07 00:27 32.26951 45.54841 38038 ft 468 kts 313°
2026-05-07 00:27 32.31915 45.49848 38038 ft 469 kts 314°
2026-05-07 00:28 32.36881 45.44841 38036 ft 469 kts 313°
2026-05-07 00:28 32.41844 45.39824 38039 ft 469 kts 313°
2026-05-07 00:29 32.46801 45.34813 38036 ft 469 kts 314°
2026-05-07 00:30 32.56837 45.24916 38035 ft 473 kts 320°
2026-05-07 00:30 32.62337 45.20575 38033 ft 475 kts 321°
2026-05-07 00:31 32.67863 45.16276 38042 ft 475 kts 321°
2026-05-07 00:31 32.73366 45.11941 38046 ft 475 kts 320°
2026-05-07 00:32 32.78860 45.07575 38049 ft 475 kts 320°
2026-05-07 00:32 32.84352 45.03203 38047 ft 475 kts 320°
2026-05-07 00:33 32.89847 44.98827 38043 ft 475 kts 320°
2026-05-07 00:33 32.95327 44.94450 38048 ft 474 kts 320°
2026-05-07 00:34 33.00807 44.90065 38044 ft 475 kts 320°
2026-05-07 00:34 33.06289 44.85677 38047 ft 475 kts 320°
2026-05-07 00:35 33.11776 44.81278 38044 ft 475 kts 320°
2026-05-07 00:35 33.17260 44.76874 38046 ft 475 kts 321°
2026-05-07 00:36 33.23156 44.73171 38047 ft 484 kts 333°
2026-05-07 00:36 33.28524 44.71140 38046 ft 490 kts 341°
2026-05-07 00:37 33.35167 44.69232 38055 ft 491 kts 342°
2026-05-07 00:37 33.41820 44.67350 38056 ft 491 kts 341°
2026-05-07 00:38 33.48456 44.65420 38056 ft 491 kts 341°
2026-05-07 00:38 33.55094 44.63461 38056 ft 491 kts 341°
2026-05-07 00:39 33.61723 44.61497 38056 ft 490 kts 341°
2026-05-07 00:39 33.68352 44.59527 38054 ft 490 kts 341°
2026-05-07 00:40 33.74964 44.57560 38057 ft 490 kts 341°
2026-05-07 00:40 33.78574 44.56488 38061 ft 490 kts 341°
2026-05-07 00:41 33.79386 44.56247 38063 ft 490 kts 341°
2026-05-07 00:41 33.86002 44.54275 38066 ft 490 kts 341°
2026-05-07 00:42 33.92582 44.52311 38065 ft 490 kts 341°
2026-05-07 00:42 33.99204 44.50335 38067 ft 490 kts 341°
2026-05-07 00:43 34.05827 44.48349 38064 ft 491 kts 341°
2026-05-07 00:43 34.12448 44.46365 38065 ft 491 kts 341°
2026-05-07 00:44 34.19076 44.44374 38064 ft 491 kts 341°
2026-05-07 00:44 34.25694 44.42385 38064 ft 490 kts 341°
2026-05-07 00:45 34.32315 44.40391 38065 ft 490 kts 341°
2026-05-07 00:45 34.38937 44.38385 38063 ft 491 kts 341°
2026-05-07 00:46 34.45566 44.36388 38057 ft 491 kts 341°
2026-05-07 00:46 34.52199 44.34383 38054 ft 491 kts 341°
2026-05-07 00:47 34.58825 44.32371 38046 ft 491 kts 341°
2026-05-07 00:47 34.65444 44.30362 38045 ft 491 kts 341°
2026-05-07 00:48 34.72068 44.28342 38048 ft 490 kts 341°
2026-05-07 00:48 34.78686 44.26323 38037 ft 490 kts 341°
2026-05-07 00:49 34.85305 44.24306 38035 ft 490 kts 341°
2026-05-07 00:49 34.91920 44.22284 38036 ft 490 kts 341°
2026-05-07 00:50 34.98518 44.20265 38024 ft 489 kts 341°
2026-05-07 00:50 35.05112 44.18241 38031 ft 488 kts 341°
2026-05-07 00:51 35.11665 44.16223 38024 ft 489 kts 341°
2026-05-07 00:51 35.18294 44.14184 38034 ft 489 kts 341°
2026-05-07 00:52 35.24865 44.12161 38023 ft 490 kts 341°
2026-05-07 00:52 35.31469 44.10120 38031 ft 490 kts 341°
2026-05-07 00:53 35.38079 44.08075 38027 ft 490 kts 341°
2026-05-07 00:53 35.44681 44.06027 38033 ft 490 kts 341°
2026-05-07 00:54 35.51280 44.03981 38022 ft 490 kts 341°
2026-05-07 00:54 35.57885 44.01934 38029 ft 489 kts 341°
2026-05-07 00:55 35.64474 43.99880 38024 ft 489 kts 341°
2026-05-07 00:55 35.71067 43.97816 38021 ft 488 kts 341°
2026-05-07 00:56 35.77652 43.95758 38035 ft 488 kts 341°
2026-05-07 00:56 35.84187 43.93713 38041 ft 488 kts 341°
2026-05-07 00:57 35.90813 43.91636 38035 ft 488 kts 341°
2026-05-07 00:57 35.97348 43.89582 38047 ft 488 kts 341°
2026-05-07 00:58 36.03925 43.87513 38047 ft 488 kts 341°
2026-05-07 00:58 36.10518 43.85433 38046 ft 489 kts 341°
2026-05-07 00:59 36.20424 43.82306 38045 ft 490 kts 341°
2026-05-07 01:00 36.27016 43.80187 38045 ft 489 kts 339°
2026-05-07 01:00 36.33220 43.77280 38053 ft 484 kts 332°
2026-05-07 01:01 36.37622 43.74941 38049 ft 484 kts 332°
2026-05-07 01:02 36.43812 43.71663 38055 ft 483 kts 333°
2026-05-07 01:02 36.50013 43.68427 38053 ft 484 kts 333°
2026-05-07 01:03 36.56226 43.65199 38056 ft 483 kts 333°
2026-05-07 01:03 36.62430 43.61963 38057 ft 483 kts 333°
2026-05-07 01:04 36.68631 43.58725 38056 ft 483 kts 333°
2026-05-07 01:04 36.74829 43.55481 38064 ft 483 kts 333°
2026-05-07 01:05 36.80967 43.52119 38061 ft 482 kts 331°
2026-05-07 01:05 36.87083 43.48668 38074 ft 482 kts 331°
2026-05-07 01:06 36.93207 43.45223 38074 ft 483 kts 332°
2026-05-07 01:06 36.99329 43.41794 38080 ft 483 kts 332°
2026-05-07 01:07 37.05471 43.38352 38069 ft 483 kts 332°
2026-05-07 01:07 37.11596 43.34911 38082 ft 482 kts 332°
2026-05-07 01:08 37.17664 43.31493 38081 ft 481 kts 332°
2026-05-07 01:08 37.23819 43.28022 38089 ft 481 kts 332°
2026-05-07 01:09 37.29937 43.24566 38095 ft 481 kts 331°
2026-05-07 01:09 37.32821 43.22514 38098 ft 474 kts 319°
2026-05-07 01:09 37.35270 43.19793 38091 ft 468 kts 308°
2026-05-07 01:10 37.38829 43.13104 38089 ft 458 kts 294°
2026-05-07 01:10 37.41764 43.05975 38091 ft 460 kts 294°
2026-05-07 01:11 37.44734 42.98845 38092 ft 461 kts 294°
2026-05-07 01:11 37.47744 42.91720 38091 ft 461 kts 295°
2026-05-07 01:12 37.50747 42.84623 38078 ft 463 kts 295°
2026-05-07 01:12 37.53792 42.77410 38074 ft 464 kts 295°
2026-05-07 01:13 37.56814 42.70231 38092 ft 464 kts 295°
2026-05-07 01:13 37.59834 42.63046 38077 ft 463 kts 295°
2026-05-07 01:14 37.62845 42.55917 38079 ft 463 kts 295°
2026-05-07 01:14 37.65870 42.48748 38092 ft 463 kts 295°
2026-05-07 01:15 37.68889 42.41564 38080 ft 463 kts 295°
2026-05-07 01:15 37.71900 42.34379 38076 ft 463 kts 295°
2026-05-07 01:16 37.74908 42.27193 38078 ft 462 kts 295°
2026-05-07 01:16 37.77911 42.20004 38087 ft 462 kts 295°
2026-05-07 01:17 37.80907 42.12806 38078 ft 462 kts 295°
2026-05-07 01:17 37.83892 42.05620 38096 ft 461 kts 295°
2026-05-07 01:18 37.86875 41.98425 38091 ft 462 kts 295°
2026-05-07 01:18 37.89876 41.91217 38082 ft 464 kts 297°
2026-05-07 01:19 37.93576 41.84477 38090 ft 469 kts 308°
2026-05-07 01:19 37.97923 41.78294 38087 ft 471 kts 309°
2026-05-07 01:20 38.02296 41.72103 38082 ft 472 kts 308°
2026-05-07 01:20 38.06232 41.66461 38081 ft 472 kts 308°
2026-05-07 01:21 38.09627 41.61563 38077 ft 471 kts 308°
2026-05-07 01:22 38.13946 41.55317 38086 ft 471 kts 308°
2026-05-07 01:22 38.18263 41.49062 38073 ft 470 kts 308°
2026-05-07 01:23 38.21840 41.43870 38081 ft 469 kts 308°
2026-05-07 01:23 38.26143 41.37616 38082 ft 470 kts 308°
2026-05-07 01:24 38.30437 41.31364 38079 ft 469 kts 308°
2026-05-07 01:24 38.34731 41.25095 38085 ft 469 kts 308°
2026-05-07 01:25 38.39019 41.18823 38086 ft 469 kts 308°
2026-05-07 01:25 38.43303 41.12546 38091 ft 469 kts 308°
2026-05-07 01:26 38.47586 41.06246 38083 ft 470 kts 307°
2026-05-07 01:26 38.51776 40.99860 38080 ft 470 kts 307°
2026-05-07 01:27 38.55957 40.93439 38073 ft 470 kts 307°
2026-05-07 01:27 38.60135 40.87043 38093 ft 469 kts 307°
2026-05-07 01:28 38.64326 40.80632 38080 ft 470 kts 307°
2026-05-07 01:28 38.68551 40.74244 38092 ft 470 kts 307°
2026-05-07 01:29 38.72776 40.67869 38097 ft 470 kts 307°
2026-05-07 01:29 38.76996 40.61479 38108 ft 469 kts 307°
2026-05-07 01:30 38.81209 40.55074 38109 ft 469 kts 307°
2026-05-07 01:30 38.85413 40.48672 38110 ft 469 kts 307°
2026-05-07 01:31 38.89592 40.42298 38111 ft 469 kts 307°
2026-05-07 01:31 38.93787 40.35881 38119 ft 469 kts 307°
2026-05-07 01:32 38.97979 40.29459 38123 ft 469 kts 307°
2026-05-07 01:32 39.02174 40.23025 38120 ft 470 kts 307°
2026-05-07 01:33 39.06362 40.16571 38119 ft 470 kts 307°
2026-05-07 01:33 39.10591 40.10052 38131 ft 471 kts 307°
2026-05-07 01:34 39.14763 40.03608 38123 ft 472 kts 307°
2026-05-07 01:34 39.18967 39.97101 38121 ft 472 kts 307°
2026-05-07 01:35 39.23166 39.90592 38150 ft 472 kts 307°
2026-05-07 01:35 39.27374 39.84061 38153 ft 473 kts 307°
2026-05-07 01:36 39.31575 39.77528 38137 ft 473 kts 307°
2026-05-07 01:36 39.35766 39.70993 38132 ft 472 kts 307°
2026-05-07 01:37 39.39956 39.64440 38133 ft 473 kts 307°
2026-05-07 01:37 39.44140 39.57885 38161 ft 473 kts 307°
2026-05-07 01:38 39.48328 39.51319 38151 ft 473 kts 307°
2026-05-07 01:38 39.52510 39.44729 38157 ft 473 kts 307°
2026-05-07 01:39 39.56630 39.38105 38144 ft 472 kts 307°
2026-05-07 01:39 39.60733 39.31460 38155 ft 472 kts 307°
2026-05-07 01:40 39.64842 39.24814 38162 ft 472 kts 307°
2026-05-07 01:40 39.68945 39.18173 38152 ft 473 kts 307°
2026-05-07 01:41 39.71700 39.13705 38156 ft 472 kts 307°
2026-05-07 01:42 39.75826 39.07066 38165 ft 473 kts 307°
2026-05-07 01:42 39.79994 39.00442 38156 ft 473 kts 307°
2026-05-07 01:43 39.84133 38.93845 38162 ft 473 kts 307°
2026-05-07 01:43 39.88288 38.87199 38151 ft 473 kts 307°
2026-05-07 01:44 39.92438 38.80545 38164 ft 473 kts 307°
2026-05-07 01:44 39.96590 38.73867 38157 ft 474 kts 307°
2026-05-07 01:45 40.00725 38.67189 38156 ft 473 kts 307°
2026-05-07 01:45 40.04865 38.60505 38158 ft 473 kts 308°
2026-05-07 01:46 40.09002 38.53811 38163 ft 474 kts 307°
2026-05-07 01:46 40.13133 38.47109 38172 ft 474 kts 307°
2026-05-07 01:47 40.17273 38.40377 38169 ft 475 kts 307°
2026-05-07 01:47 40.21406 38.33644 38169 ft 475 kts 307°
2026-05-07 01:48 40.25533 38.26901 38165 ft 475 kts 307°
2026-05-07 01:48 40.29666 38.20143 38167 ft 475 kts 307°
2026-05-07 01:49 40.33289 38.12958 38168 ft 473 kts 297°
2026-05-07 01:49 40.35884 38.05064 38161 ft 471 kts 290°
2026-05-07 01:50 40.38232 37.97040 38164 ft 471 kts 290°
2026-05-07 01:50 40.40609 37.89025 38157 ft 472 kts 290°
2026-05-07 01:51 40.43000 37.81027 38164 ft 472 kts 290°
2026-05-07 01:51 40.45396 37.73000 38154 ft 472 kts 290°
2026-05-07 01:52 40.47781 37.64980 38159 ft 471 kts 290°
2026-05-07 01:52 40.50162 37.56948 38156 ft 471 kts 290°
2026-05-07 01:53 40.52539 37.48909 38159 ft 472 kts 290°
2026-05-07 01:53 40.54908 37.40878 38149 ft 472 kts 290°
2026-05-07 01:54 40.57274 37.32818 38132 ft 472 kts 290°
2026-05-07 01:54 40.59642 37.24746 38151 ft 472 kts 290°
2026-05-07 01:55 40.61995 37.16686 38130 ft 473 kts 290°
2026-05-07 01:55 40.64352 37.08593 38127 ft 472 kts 290°
2026-05-07 01:56 40.66679 37.00563 38128 ft 472 kts 290°
2026-05-07 01:56 40.69019 36.92477 38129 ft 472 kts 290°
2026-05-07 01:57 40.71355 36.84390 38133 ft 472 kts 290°
2026-05-07 01:57 40.73678 36.76298 38128 ft 471 kts 290°
2026-05-07 01:58 40.76000 36.68205 38130 ft 472 kts 290°
2026-05-07 01:58 40.78320 36.60114 38134 ft 472 kts 290°
2026-05-07 01:59 40.80644 36.52010 38134 ft 472 kts 290°
2026-05-07 01:59 40.82957 36.43900 38144 ft 473 kts 290°
2026-05-07 02:00 40.85269 36.35782 38128 ft 473 kts 290°
2026-05-07 02:00 40.87416 36.28226 38138 ft 473 kts 290°
2026-05-07 02:01 40.88845 36.23180 38132 ft 473 kts 290°
2026-05-07 02:02 40.91142 36.15036 38141 ft 473 kts 290°
2026-05-07 02:02 40.93439 36.06880 38133 ft 473 kts 290°
2026-05-07 02:03 40.95695 35.98718 38130 ft 473 kts 289°
2026-05-07 02:03 40.97925 35.90535 38143 ft 472 kts 290°
2026-05-07 02:04 41.00170 35.82354 38126 ft 472 kts 290°
2026-05-07 02:04 41.02437 35.74201 38131 ft 472 kts 290°
2026-05-07 02:05 41.04699 35.66048 38129 ft 472 kts 290°
2026-05-07 02:05 41.06952 35.57885 38130 ft 472 kts 290°
2026-05-07 02:06 41.09198 35.49707 38132 ft 472 kts 290°
2026-05-07 02:06 41.11443 35.41516 38128 ft 472 kts 290°
2026-05-07 02:07 41.13682 35.33318 38133 ft 472 kts 290°
2026-05-07 02:07 41.17024 35.21015 38147 ft 473 kts 290°
2026-05-07 02:08 41.18870 35.14196 38133 ft 473 kts 290°
2026-05-07 02:08 41.21090 35.05977 38134 ft 473 kts 290°
2026-05-07 02:09 41.23303 34.97763 38123 ft 473 kts 290°
2026-05-07 02:09 41.25513 34.89520 38118 ft 473 kts 290°
2026-05-07 02:10 41.27716 34.81281 38117 ft 472 kts 290°
2026-05-07 02:10 41.29910 34.73058 38116 ft 472 kts 290°
2026-05-07 02:11 41.32096 34.64832 38113 ft 472 kts 290°
2026-05-07 02:11 41.34278 34.56586 38112 ft 472 kts 290°
2026-05-07 02:12 41.36454 34.48343 38111 ft 472 kts 290°
2026-05-07 02:12 41.38627 34.40087 38103 ft 472 kts 290°
2026-05-07 02:13 41.40792 34.31820 38090 ft 472 kts 289°
2026-05-07 02:13 41.42922 34.23550 38094 ft 473 kts 289°
2026-05-07 02:14 41.45053 34.15249 38083 ft 473 kts 289°
2026-05-07 02:14 41.47186 34.06949 38089 ft 473 kts 289°
2026-05-07 02:15 41.49323 33.98656 38077 ft 473 kts 289°
2026-05-07 02:15 41.51450 33.90362 38093 ft 473 kts 289°
2026-05-07 02:16 41.53569 33.82065 38082 ft 473 kts 289°
2026-05-07 02:16 41.55670 33.73807 38071 ft 473 kts 289°
2026-05-07 02:17 41.57781 33.65496 38080 ft 472 kts 289°
2026-05-07 02:17 41.59880 33.57195 38081 ft 472 kts 289°
2026-05-07 02:18 41.61931 33.48876 38085 ft 472 kts 289°
2026-05-07 02:18 41.64031 33.40570 38089 ft 471 kts 289°
2026-05-07 02:19 41.66124 33.32283 38083 ft 471 kts 289°
2026-05-07 02:19 41.68204 33.23970 38093 ft 471 kts 289°
2026-05-07 02:20 41.70279 33.15660 38078 ft 471 kts 289°
2026-05-07 02:20 41.71357 33.11330 38084 ft 471 kts 289°
2026-05-07 02:21 41.71501 33.10755 38087 ft 471 kts 289°
2026-05-07 02:21 41.73564 33.02446 38094 ft 470 kts 289°
2026-05-07 02:22 41.75593 32.94128 38095 ft 470 kts 289°
2026-05-07 02:22 41.77606 32.85805 38091 ft 469 kts 289°
2026-05-07 02:23 41.79620 32.77483 38093 ft 469 kts 289°
2026-05-07 02:23 41.81646 32.69173 38096 ft 469 kts 289°
2026-05-07 02:24 41.83693 32.60862 38088 ft 469 kts 289°
2026-05-07 02:24 41.85728 32.52558 38096 ft 469 kts 289°
2026-05-07 02:25 41.87742 32.44264 38102 ft 468 kts 289°
2026-05-07 02:25 41.89689 32.35921 38104 ft 468 kts 289°
2026-05-07 02:26 41.91675 32.27584 38105 ft 468 kts 289°
2026-05-07 02:26 41.93662 32.19259 38099 ft 468 kts 289°
2026-05-07 02:27 41.95638 32.10929 38103 ft 468 kts 289°
2026-05-07 02:27 41.97594 32.02660 38102 ft 467 kts 289°
2026-05-07 02:28 41.99569 31.94280 38103 ft 467 kts 289°
2026-05-07 02:28 42.01509 31.85995 38106 ft 467 kts 289°
2026-05-07 02:29 42.03472 31.77605 38105 ft 468 kts 289°
2026-05-07 02:29 42.05405 31.69305 38101 ft 468 kts 289°
2026-05-07 02:30 42.07354 31.60888 38109 ft 468 kts 289°
2026-05-07 02:30 42.09283 31.52560 38107 ft 469 kts 288°
2026-05-07 02:31 42.11225 31.44118 38108 ft 469 kts 288°
2026-05-07 02:31 42.13139 31.35790 38109 ft 468 kts 288°
2026-05-07 02:32 42.15073 31.27359 38109 ft 468 kts 288°
2026-05-07 02:32 42.16976 31.19037 38110 ft 467 kts 288°
2026-05-07 02:33 42.18894 31.10605 38106 ft 467 kts 288°
2026-05-07 02:33 42.20780 31.02293 38108 ft 466 kts 288°
2026-05-07 02:34 42.22669 30.93939 38112 ft 466 kts 288°
2026-05-07 02:34 42.24552 30.85573 38113 ft 465 kts 288°
2026-05-07 02:35 42.26426 30.77216 38110 ft 465 kts 288°
2026-05-07 02:35 42.28291 30.68870 38109 ft 464 kts 288°
2026-05-07 02:36 42.30144 30.60525 38111 ft 463 kts 288°
2026-05-07 02:36 42.31992 30.52202 38112 ft 463 kts 288°
2026-05-07 02:37 42.33836 30.43856 38113 ft 463 kts 288°
2026-05-07 02:37 42.35667 30.35528 38113 ft 463 kts 288°
2026-05-07 02:38 42.37497 30.27175 38110 ft 463 kts 288°
2026-05-07 02:38 42.39315 30.18833 38112 ft 463 kts 288°
2026-05-07 02:39 42.41135 30.10476 38105 ft 462 kts 288°
2026-05-07 02:39 42.42944 30.02123 38104 ft 463 kts 288°
2026-05-07 02:40 42.44751 29.93759 38104 ft 463 kts 288°
2026-05-07 02:40 42.45706 29.90126 38091 ft 461 kts 295°
2026-05-07 02:41 42.46101 29.88923 38093 ft 461 kts 296°
2026-05-07 02:41 42.49321 29.81471 38101 ft 458 kts 308°
2026-05-07 02:42 42.53264 29.74691 38102 ft 458 kts 309°
2026-05-07 02:42 42.57251 29.67952 38104 ft 458 kts 309°
2026-05-07 02:43 42.61214 29.61179 38096 ft 459 kts 309°
2026-05-07 02:43 42.65129 29.54427 38104 ft 458 kts 309°
2026-05-07 02:44 42.69067 29.47606 38090 ft 458 kts 309°
2026-05-07 02:44 42.72987 29.40792 38093 ft 458 kts 309°
2026-05-07 02:45 42.76911 29.33962 38093 ft 457 kts 309°
2026-05-07 02:45 42.80828 29.27131 38097 ft 457 kts 309°
2026-05-07 02:46 42.84732 29.20315 38089 ft 457 kts 309°
2026-05-07 02:46 42.88623 29.13498 38084 ft 456 kts 309°
2026-05-07 02:47 42.92527 29.06638 38084 ft 456 kts 308°
2026-05-07 02:47 42.96416 28.99791 38090 ft 456 kts 308°
2026-05-07 02:48 43.00300 28.92938 38080 ft 457 kts 308°
2026-05-07 02:48 43.04184 28.86065 38083 ft 456 kts 308°
2026-05-07 02:49 43.08064 28.79196 38077 ft 456 kts 308°
2026-05-07 02:49 43.11933 28.72321 38091 ft 456 kts 308°
2026-05-07 02:50 43.15799 28.65436 38082 ft 456 kts 308°
2026-05-07 02:50 43.19657 28.58548 38082 ft 456 kts 308°
2026-05-07 02:51 43.23513 28.51647 38082 ft 456 kts 308°
2026-05-07 02:51 43.27364 28.44742 38082 ft 456 kts 308°
2026-05-07 02:52 43.30562 28.38997 38081 ft 456 kts 308°
2026-05-07 02:52 43.34406 28.32072 38083 ft 455 kts 308°
2026-05-07 02:53 43.38241 28.25155 38080 ft 456 kts 308°
2026-05-07 02:53 43.42078 28.18204 38072 ft 456 kts 308°
2026-05-07 02:54 43.45904 28.11264 38075 ft 456 kts 308°
2026-05-07 02:54 43.49728 28.04317 38073 ft 456 kts 308°
2026-05-07 02:55 43.53557 27.97333 38092 ft 455 kts 308°
2026-05-07 02:55 43.57371 27.90364 38079 ft 456 kts 308°
2026-05-07 02:56 43.61258 27.83491 38089 ft 454 kts 312°
2026-05-07 02:56 43.65777 27.77433 38082 ft 454 kts 317°
2026-05-07 02:57 43.70406 27.71466 38082 ft 454 kts 317°
2026-05-07 02:57 43.75012 27.65468 38100 ft 455 kts 317°
2026-05-07 02:58 43.79611 27.59444 38103 ft 455 kts 317°
2026-05-07 02:58 43.84210 27.53394 38095 ft 456 kts 317°
2026-05-07 02:59 43.88772 27.47381 38097 ft 456 kts 317°
2026-05-07 02:59 43.93370 27.41308 38083 ft 456 kts 316°
2026-05-07 03:00 43.97984 27.35198 38082 ft 455 kts 316°
2026-05-07 03:00 44.00437 27.31949 38083 ft 454 kts 316°
2026-05-07 03:01 44.00710 27.31586 38092 ft 454 kts 316°
2026-05-07 03:01 44.05307 27.25472 38076 ft 454 kts 316°
2026-05-07 03:02 44.09863 27.19404 38079 ft 453 kts 316°
2026-05-07 03:02 44.14387 27.13366 38071 ft 453 kts 316°
2026-05-07 03:03 44.18933 27.07289 38073 ft 453 kts 316°
2026-05-07 03:03 44.23474 27.01199 38067 ft 453 kts 316°
2026-05-07 03:04 44.28015 26.95098 38062 ft 453 kts 316°
2026-05-07 03:04 44.32553 26.88984 38066 ft 453 kts 316°
2026-05-07 03:05 44.37084 26.82870 38063 ft 453 kts 316°
2026-05-07 03:05 44.41608 26.76744 38060 ft 453 kts 316°
2026-05-07 03:06 44.46139 26.70604 38054 ft 453 kts 316°
2026-05-07 03:06 44.50659 26.64462 38052 ft 453 kts 316°
2026-05-07 03:07 44.55176 26.58312 38056 ft 453 kts 316°
2026-05-07 03:07 44.59688 26.52150 38053 ft 452 kts 316°
2026-05-07 03:08 44.64191 26.45989 38052 ft 452 kts 316°
2026-05-07 03:08 44.68696 26.39811 38048 ft 452 kts 316°
2026-05-07 03:09 44.73192 26.33628 38059 ft 452 kts 316°
2026-05-07 03:09 44.77682 26.27442 38080 ft 452 kts 316°
2026-05-07 03:10 44.82171 26.21242 38082 ft 453 kts 316°
2026-05-07 03:10 44.86666 26.15020 38076 ft 453 kts 316°
2026-05-07 03:11 44.91154 26.08793 38075 ft 453 kts 316°
2026-05-07 03:11 44.95648 26.02545 38068 ft 453 kts 315°
2026-05-07 03:12 45.00115 25.96319 38066 ft 452 kts 315°
2026-05-07 03:12 45.04590 25.90069 38065 ft 452 kts 315°
2026-05-07 03:13 45.09067 25.83800 38064 ft 452 kts 315°
2026-05-07 03:13 45.13527 25.77540 38065 ft 452 kts 315°
2026-05-07 03:14 45.17990 25.71258 38055 ft 452 kts 315°
2026-05-07 03:15 45.24672 25.61827 38055 ft 452 kts 315°
2026-05-07 03:15 45.29131 25.55522 38057 ft 452 kts 315°
2026-05-07 03:16 45.33583 25.49206 38069 ft 452 kts 315°
2026-05-07 03:16 45.38029 25.42885 38070 ft 453 kts 315°
2026-05-07 03:17 45.42486 25.36532 38074 ft 453 kts 314°
2026-05-07 03:17 45.46939 25.30173 38073 ft 454 kts 314°
2026-05-07 03:18 45.51393 25.23789 38074 ft 454 kts 314°
2026-05-07 03:18 45.55837 25.17410 38071 ft 454 kts 314°
2026-05-07 03:19 45.60294 25.10998 38063 ft 454 kts 314°
2026-05-07 03:19 45.64729 25.04602 38066 ft 453 kts 314°
2026-05-07 03:20 45.69137 24.98231 38069 ft 453 kts 314°
2026-05-07 03:20 45.73411 24.92040 38058 ft 453 kts 314°
2026-05-07 03:21 45.76198 24.87994 38055 ft 454 kts 314°
2026-05-07 03:22 45.80625 24.81551 38053 ft 454 kts 314°
2026-05-07 03:22 45.85051 24.75096 38045 ft 454 kts 314°
2026-05-07 03:23 45.89478 24.68629 38036 ft 454 kts 314°
2026-05-07 03:23 45.93892 24.62160 38033 ft 454 kts 313°
2026-05-07 03:24 45.98315 24.55659 38021 ft 454 kts 313°
2026-05-07 03:24 46.02734 24.49151 38024 ft 455 kts 313°
2026-05-07 03:25 46.07158 24.42626 38030 ft 455 kts 313°
2026-05-07 03:25 46.11574 24.36096 38023 ft 455 kts 313°
2026-05-07 03:26 46.15992 24.29544 38023 ft 456 kts 313°
2026-05-07 03:26 46.20407 24.22975 38035 ft 456 kts 313°
2026-05-07 03:27 46.24820 24.16395 38024 ft 456 kts 313°
2026-05-07 03:27 46.29238 24.09799 38031 ft 456 kts 313°
2026-05-07 03:28 46.33644 24.03198 38017 ft 456 kts 313°
2026-05-07 03:28 46.38053 23.96578 38022 ft 456 kts 313°
2026-05-07 03:29 46.42453 23.89953 38017 ft 456 kts 313°
2026-05-07 03:29 46.46855 23.83307 38021 ft 457 kts 313°
2026-05-07 03:30 46.51252 23.76649 38014 ft 457 kts 313°
2026-05-07 03:30 46.55646 23.69991 38015 ft 456 kts 313°
2026-05-07 03:31 46.60026 23.63334 38019 ft 456 kts 313°
2026-05-07 03:31 46.64402 23.56662 38021 ft 456 kts 312°
2026-05-07 03:32 46.68781 23.49973 38014 ft 456 kts 312°
2026-05-07 03:32 46.73157 23.43270 38017 ft 456 kts 312°
2026-05-07 03:33 46.77526 23.36558 38019 ft 456 kts 312°
2026-05-07 03:33 46.81862 23.29884 38019 ft 457 kts 312°
2026-05-07 03:34 46.86231 23.23139 38014 ft 457 kts 312°
2026-05-07 03:34 46.90597 23.16384 38010 ft 457 kts 312°
2026-05-07 03:35 46.94959 23.09617 38012 ft 457 kts 312°
2026-05-07 03:35 46.99313 23.02843 37999 ft 458 kts 312°
2026-05-07 03:36 47.03675 22.96040 38000 ft 457 kts 312°
2026-05-07 03:36 47.08025 22.89241 37998 ft 457 kts 312°
2026-05-07 03:37 47.12367 22.82437 37987 ft 457 kts 312°
2026-05-07 03:37 47.15989 22.76750 37963 ft 457 kts 311°
2026-05-07 03:38 47.20322 22.69920 37979 ft 457 kts 311°
2026-05-07 03:38 47.24651 22.63087 37979 ft 457 kts 311°
2026-05-07 03:39 47.28981 22.56233 37978 ft 456 kts 311°
2026-05-07 03:39 47.33301 22.49376 37964 ft 457 kts 311°
2026-05-07 03:40 47.37623 22.42502 37957 ft 457 kts 311°
2026-05-07 03:40 47.41945 22.35605 37957 ft 457 kts 311°
2026-05-07 03:41 47.42203 22.35193 37974 ft 457 kts 311°
2026-05-07 03:41 47.44886 22.30905 37970 ft 457 kts 311°
2026-05-07 03:42 47.49196 22.23998 37961 ft 457 kts 311°
2026-05-07 03:42 47.53499 22.17088 37960 ft 457 kts 311°
2026-05-07 03:43 47.57046 22.11295 37957 ft 456 kts 308°